KLM801 EHAM-EGHQ

Flight info

Callsign KLM801
Flight time N/A
Altitude 34000
Route IDRID L980 MANGO L620 GIBSO/N0386F240 L620 DAWLY
Aircraft B738/M-SDE2E3FGHIRWXY/LB1

Departure

Time 2026-04-29 13:15
Airport Amsterdam Airport Schiphol (EHAM)

Arrival

Time N/A
Airport Cornwall Airport Newquay (EGHQ)
Time Latitude Longitude Altitude Speed Heading
2026-04-29 12:34 52.31404 4.77021 -1 ft 0 kts 303°
2026-04-29 12:52 52.31403 4.77023 -1 ft 1 kts 303°
2026-04-29 12:52 52.31395 4.77044 -1 ft 2 kts 302°
2026-04-29 12:52 52.31387 4.77065 -1 ft 2 kts 303°
2026-04-29 12:53 52.31379 4.77085 -1 ft 2 kts 302°
2026-04-29 12:53 52.31370 4.77106 -1 ft 2 kts 303°
2026-04-29 12:53 52.31361 4.77125 -1 ft 2 kts 327°
2026-04-29 12:53 52.31347 4.77135 -1 ft 2 kts 350°
2026-04-29 12:54 52.31332 4.77135 -1 ft 2 kts 14°
2026-04-29 12:54 52.31320 4.77126 -1 ft 1 kts 37°
2026-04-29 12:54 52.31308 4.77111 -1 ft 2 kts 33°
2026-04-29 12:54 52.31296 4.77099 -1 ft 2 kts 33°
2026-04-29 12:55 52.31283 4.77085 -1 ft 2 kts 33°
2026-04-29 12:55 52.31271 4.77072 -1 ft 2 kts 33°
2026-04-29 12:55 52.31268 4.77069 -1 ft 1 kts 33°
2026-04-29 12:55 52.31289 4.77105 -1 ft 5 kts 58°
2026-04-29 12:56 52.31300 4.77163 -1 ft 5 kts 87°
2026-04-29 12:56 52.31296 4.77241 -1 ft 7 kts 95°
2026-04-29 12:56 52.31291 4.77328 -1 ft 7 kts 95°
2026-04-29 12:56 52.31288 4.77381 -1 ft 2 kts 95°
2026-04-29 12:57 52.31288 4.77387 -1 ft 0 kts 95°
2026-04-29 12:59 52.31287 4.77407 -1 ft 4 kts 94°
2026-04-29 12:59 52.31284 4.77492 -1 ft 10 kts 93°
2026-04-29 12:59 52.31282 4.77585 -1 ft 0 kts 87°
2026-04-29 13:00 52.31284 4.77603 -1 ft 7 kts 76°
2026-04-29 13:00 52.31363 4.77655 -1 ft 17 kts
2026-04-29 13:00 52.31487 4.77595 -1 ft 19 kts 324°
2026-04-29 13:00 52.31571 4.77425 -1 ft 19 kts 289°
2026-04-29 13:01 52.31574 4.77213 -1 ft 19 kts 267°
2026-04-29 13:01 52.31566 4.76976 -1 ft 22 kts 267°
2026-04-29 13:01 52.31557 4.76713 -1 ft 23 kts 267°
2026-04-29 13:01 52.31547 4.76445 -1 ft 23 kts 266°
2026-04-29 13:02 52.31538 4.76184 -1 ft 22 kts 266°
2026-04-29 13:02 52.31530 4.75928 -1 ft 22 kts 267°
2026-04-29 13:02 52.31521 4.75669 -1 ft 22 kts 266°
2026-04-29 13:02 52.31512 4.75418 -1 ft 22 kts 267°
2026-04-29 13:03 52.31503 4.75166 -1 ft 22 kts 267°
2026-04-29 13:03 52.31495 4.74918 -1 ft 21 kts 267°
2026-04-29 13:03 52.31487 4.74699 -1 ft 17 kts 266°
2026-04-29 13:03 52.31481 4.74536 -1 ft 7 kts 266°
2026-04-29 13:04 52.31479 4.74463 -1 ft 5 kts 266°
2026-04-29 13:04 52.31477 4.74390 -1 ft 8 kts 273°
2026-04-29 13:04 52.31533 4.74293 -1 ft 17 kts
2026-04-29 13:04 52.31688 4.74306 -1 ft 27 kts
2026-04-29 13:05 52.31875 4.74323 -1 ft 20 kts
2026-04-29 13:05 52.32014 4.74304 -1 ft 18 kts 315°
2026-04-29 13:05 52.32035 4.74130 -1 ft 14 kts 274°
2026-04-29 13:05 52.32041 4.73981 -1 ft 12 kts 273°
2026-04-29 13:06 52.32046 4.73824 -1 ft 15 kts 273°
2026-04-29 13:06 52.32053 4.73613 -1 ft 21 kts 274°
2026-04-29 13:06 52.32083 4.73374 -1 ft 21 kts 307°
2026-04-29 13:06 52.32186 4.73217 -1 ft 20 kts 319°
2026-04-29 13:07 52.32291 4.73070 -1 ft 19 kts 319°
2026-04-29 13:07 52.32390 4.72930 -1 ft 18 kts 319°
2026-04-29 13:07 52.32487 4.72793 -1 ft 18 kts 319°
2026-04-29 13:07 52.32585 4.72654 -1 ft 19 kts 319°
2026-04-29 13:08 52.32687 4.72503 -1 ft 19 kts 312°
2026-04-29 13:08 52.32778 4.72335 -1 ft 19 kts 311°
2026-04-29 13:08 52.32867 4.72170 -1 ft 19 kts 311°
2026-04-29 13:08 52.32958 4.72000 -1 ft 20 kts 311°
2026-04-29 13:09 52.33053 4.71824 -1 ft 20 kts 311°
2026-04-29 13:09 52.33142 4.71638 -1 ft 19 kts 292°
2026-04-29 13:09 52.33134 4.71464 -1 ft 13 kts 275°
2026-04-29 13:09 52.33195 4.71305 -1 ft 20 kts 311°
2026-04-29 13:10 52.33280 4.71148 -1 ft 1 kts 310°
2026-04-29 13:10 52.33290 4.71127 -1 ft 5 kts 310°
2026-04-29 13:10 52.33297 4.71114 -1 ft 0 kts 310°
2026-04-29 13:13 52.33297 4.71113 -1 ft 0 kts 310°
2026-04-29 13:14 52.33317 4.71077 -1 ft 8 kts 311°
2026-04-29 13:14 52.33372 4.70987 -1 ft 14 kts 325°
2026-04-29 13:14 52.33480 4.70941 -1 ft 18 kts
2026-04-29 13:14 52.33623 4.70952 -1 ft 44 kts
2026-04-29 13:15 52.34272 4.71012 0 ft 137 kts
2026-04-29 13:15 52.35299 4.71141 542 ft 156 kts
2026-04-29 13:15 52.36409 4.71235 1240 ft 183 kts
2026-04-29 13:15 52.37761 4.71352 2003 ft 210 kts
2026-04-29 13:16 52.39296 4.71493 2790 ft 233 kts
2026-04-29 13:16 52.40939 4.71644 3611 ft 252 kts
2026-04-29 13:16 52.42673 4.71527 4631 ft 262 kts 346°
2026-04-29 13:16 52.44269 4.70106 5737 ft 269 kts 317°
2026-04-29 13:17 52.45586 4.67876 6355 ft 279 kts 312°
2026-04-29 13:17 52.46579 4.65235 6345 ft 274 kts 289°
2026-04-29 13:17 52.46830 4.62147 6345 ft 272 kts 265°
2026-04-29 13:17 52.46341 4.59210 6347 ft 272 kts 244°
2026-04-29 13:18 52.45429 4.56498 6351 ft 272 kts 240°
2026-04-29 13:18 52.44496 4.53789 6345 ft 272 kts 241°
2026-04-29 13:18 52.43577 4.51087 6344 ft 272 kts 241°
2026-04-29 13:18 52.42650 4.48367 6344 ft 272 kts 241°
2026-04-29 13:19 52.41700 4.45584 6871 ft 292 kts 241°
2026-04-29 13:19 52.40741 4.42776 8316 ft 284 kts 241°
2026-04-29 13:19 52.39785 4.39976 9359 ft 290 kts 241°
2026-04-29 13:19 52.38812 4.37133 10524 ft 290 kts 241°
2026-04-29 13:20 52.37808 4.34200 11171 ft 310 kts 240°
2026-04-29 13:20 52.36711 4.31001 11684 ft 332 kts 240°
2026-04-29 13:20 52.35571 4.27680 12477 ft 342 kts 240°
2026-04-29 13:20 52.34377 4.24208 13226 ft 353 kts 240°
2026-04-29 13:21 52.33174 4.20714 13347 ft 356 kts 240°
2026-04-29 13:21 52.31942 4.17145 13611 ft 365 kts 239°
2026-04-29 13:21 52.30554 4.13801 14781 ft 360 kts 232°
2026-04-29 13:21 52.28994 4.10533 15560 ft 367 kts 232°
2026-04-29 13:22 52.27428 4.07259 16478 ft 369 kts 232°
2026-04-29 13:22 52.25867 4.03985 17271 ft 373 kts 232°
2026-04-29 13:22 52.24275 4.00651 18056 ft 377 kts 232°
2026-04-29 13:22 52.22644 3.97244 18814 ft 382 kts 232°
2026-04-29 13:23 52.21003 3.93819 19543 ft 386 kts 232°
2026-04-29 13:23 52.19348 3.90370 20243 ft 390 kts 232°
2026-04-29 13:23 52.17693 3.86927 20914 ft 394 kts 232°
2026-04-29 13:23 52.15986 3.83380 21573 ft 398 kts 232°
2026-04-29 13:24 52.14292 3.79866 22199 ft 402 kts 232°
2026-04-29 13:24 52.12563 3.76283 22811 ft 405 kts 232°
2026-04-29 13:24 52.10807 3.72649 23403 ft 409 kts 232°
2026-04-29 13:24 52.09065 3.69052 23969 ft 412 kts 232°
2026-04-29 13:25 52.07289 3.65386 24518 ft 416 kts 232°
2026-04-29 13:25 52.03679 3.57955 25571 ft 423 kts 232°
2026-04-29 13:25 52.01848 3.54195 26071 ft 426 kts 232°
2026-04-29 13:26 52.00009 3.50423 26555 ft 429 kts 232°
2026-04-29 13:26 51.98204 3.46610 27017 ft 432 kts 234°
2026-04-29 13:26 51.96429 3.42649 27475 ft 435 kts 234°
2026-04-29 13:26 51.94671 3.38720 27905 ft 438 kts 234°
2026-04-29 13:27 51.92879 3.34745 28333 ft 441 kts 233°
2026-04-29 13:27 51.91054 3.30709 28744 ft 444 kts 233°
2026-04-29 13:27 51.89253 3.26735 29142 ft 447 kts 233°
2026-04-29 13:27 51.87477 3.22696 29514 ft 450 kts 237°
2026-04-29 13:28 51.85972 3.18269 29885 ft 452 kts 245°
2026-04-29 13:28 51.84897 3.13515 30279 ft 454 kts 255°
2026-04-29 13:28 51.84341 3.08457 30719 ft 454 kts 263°
2026-04-29 13:28 51.84024 3.03402 31162 ft 454 kts 264°
2026-04-29 13:29 51.83710 2.98388 31589 ft 454 kts 264°
2026-04-29 13:29 51.83374 2.93308 32031 ft 454 kts 264°
2026-04-29 13:29 51.83038 2.88259 32467 ft 453 kts 264°
2026-04-29 13:29 51.82699 2.83180 32905 ft 453 kts 264°
2026-04-29 13:30 51.82361 2.78139 33339 ft 452 kts 264°
2026-04-29 13:30 51.82024 2.73152 33763 ft 451 kts 264°
2026-04-29 13:30 51.81682 2.68118 34184 ft 450 kts 264°
2026-04-29 13:30 51.81340 2.63119 34354 ft 455 kts 264°
2026-04-29 13:31 51.80635 2.52949 34342 ft 452 kts 264°
2026-04-29 13:31 51.79933 2.42945 34345 ft 450 kts 264°
2026-04-29 13:32 51.79225 2.32972 34344 ft 450 kts 263°
2026-04-29 13:32 51.78502 2.22904 34344 ft 451 kts 263°
2026-04-29 13:33 51.77884 2.12849 34344 ft 451 kts 264°
2026-04-29 13:33 51.77305 2.02822 34344 ft 451 kts 264°
2026-04-29 13:34 51.76706 1.92782 34344 ft 451 kts 264°
2026-04-29 13:34 51.76098 1.82742 34344 ft 451 kts 264°
2026-04-29 13:35 51.75480 1.72709 34344 ft 451 kts 264°
2026-04-29 13:35 51.74851 1.62647 34344 ft 451 kts 264°
2026-04-29 13:36 51.74215 1.52637 34344 ft 451 kts 264°
2026-04-29 13:36 51.73571 1.42631 34344 ft 451 kts 264°
2026-04-29 13:37 51.72932 1.32835 34344 ft 450 kts 264°
2026-04-29 13:37 51.72273 1.22861 34344 ft 451 kts 264°
2026-04-29 13:38 51.71601 1.12819 34344 ft 451 kts 264°
2026-04-29 13:38 51.70923 1.02832 34344 ft 451 kts 264°
2026-04-29 13:39 51.70237 0.92848 34344 ft 451 kts 264°
2026-04-29 13:39 51.69817 0.86774 34350 ft 442 kts 261°
2026-04-29 13:40 51.69426 0.82235 34325 ft 389 kts 256°
2026-04-29 13:40 51.68562 0.78445 34249 ft 354 kts 247°
2026-04-29 13:40 51.67539 0.75220 34288 ft 325 kts 244°
2026-04-29 13:40 51.66360 0.72185 34301 ft 325 kts 241°
2026-04-29 13:41 51.63765 0.66226 34290 ft 332 kts 240°
2026-04-29 13:41 51.61021 0.60359 34289 ft 334 kts 238°
2026-04-29 13:42 51.58310 0.54489 34290 ft 332 kts 240°
2026-04-29 13:42 51.55663 0.48612 34286 ft 323 kts 240°
2026-04-29 13:43 51.54361 0.45701 34507 ft 324 kts 240°
2026-04-29 13:43 51.53062 0.42788 34909 ft 324 kts 240°
2026-04-29 13:43 51.51795 0.39949 35240 ft 326 kts 240°
2026-04-29 13:43 51.50504 0.37058 35605 ft 326 kts 240°
2026-04-29 13:44 51.49238 0.34228 35962 ft 327 kts 239°
2026-04-29 13:44 51.47927 0.31317 36342 ft 327 kts 239°
2026-04-29 13:44 51.46629 0.28439 36706 ft 327 kts 239°
2026-04-29 13:44 51.45328 0.25545 37066 ft 327 kts 239°
2026-04-29 13:45 51.44018 0.22630 37422 ft 328 kts 239°
2026-04-29 13:45 51.42712 0.19726 37770 ft 328 kts 239°
2026-04-29 13:45 51.41412 0.16837 38109 ft 327 kts 239°
2026-04-29 13:45 51.40084 0.13884 38289 ft 331 kts 239°
2026-04-29 13:46 51.37390 0.07904 38292 ft 342 kts 239°
2026-04-29 13:46 51.34694 0.01947 38289 ft 341 kts 239°
2026-04-29 13:47 51.32046 -0.03898 38286 ft 340 kts 239°
2026-04-29 13:47 51.29375 -0.09790 38273 ft 340 kts 239°
2026-04-29 13:48 51.26755 -0.15549 38260 ft 340 kts 239°
2026-04-29 13:48 51.24090 -0.21396 38247 ft 340 kts 239°
2026-04-29 13:49 51.21295 -0.27519 38238 ft 340 kts 239°
2026-04-29 13:49 51.18616 -0.33369 38243 ft 340 kts 239°
2026-04-29 13:50 51.15949 -0.39183 38245 ft 340 kts 239°
2026-04-29 13:50 51.13286 -0.44978 38242 ft 340 kts 239°
2026-04-29 13:51 51.10560 -0.50894 38235 ft 340 kts 239°
2026-04-29 13:51 51.07787 -0.56900 38229 ft 340 kts 239°
2026-04-29 13:52 51.05622 -0.63006 38226 ft 334 kts 254°
2026-04-29 13:52 51.04694 -0.68875 38232 ft 335 kts 256°
2026-04-29 13:53 51.04026 -0.73660 38274 ft 346 kts 259°
2026-04-29 13:53 51.03392 -0.80597 38299 ft 366 kts 263°
2026-04-29 13:54 51.03007 -0.85220 38301 ft 379 kts 261°
2026-04-29 13:54 51.02608 -0.89182 38302 ft 389 kts 259°
2026-04-29 13:54 51.01437 -0.97627 38297 ft 409 kts 255°
2026-04-29 13:55 50.99926 -1.06205 38292 ft 426 kts 254°
2026-04-29 13:55 50.98396 -1.15498 38291 ft 443 kts 256°
2026-04-29 13:56 50.96950 -1.25151 38290 ft 458 kts 257°
2026-04-29 13:56 50.95517 -1.35000 38289 ft 461 kts 257°
2026-04-29 13:57 50.93918 -1.44236 38348 ft 458 kts 253°
2026-04-29 13:57 50.91854 -1.53574 38316 ft 459 kts 249°